Time,TemperatureF,DewpointF,PressureIn,WindDirection,WindDirectionDegrees,WindSpeedMPH,WindSpeedGustMPH,Humidity,HourlyPrecipIn,Conditions,Clouds,dailyrainin,SoftwareType,DateUTC
2013-07-01 00:00:00,68.6,60.4,29.90,SW,229,0.0,0.0,75,0.00,,---,0.00,VWS V14.01,2013-07-01 07:00:00,
2013-07-01 00:01:00,68.6,60.4,29.90,SW,229,0.0,0.0,75,0.00,,---,0.00,VWS V14.01,2013-07-01 07:01:00,
2013-07-01 00:05:00,68.2,60.0,29.90,SW,229,0.0,0.0,75,0.00,,---,0.00,VWS V14.01,2013-07-01 07:05:00,
2013-07-01 00:06:00,68.2,60.0,29.90,SW,229,0.0,0.0,75,0.00,,---,0.00,VWS V14.01,2013-07-01 07:06:00,
2013-07-01 00:10:00,68.0,60.2,29.90,SE,125,1.0,1.0,76,0.00,,---,0.00,VWS V14.01,2013-07-01 07:10:00,
2013-07-01 00:11:00,68.0,60.2,29.90,SW,220,0.0,1.0,76,0.00,,---,0.00,VWS V14.01,2013-07-01 07:11:00,
2013-07-01 00:15:00,68.3,60.5,29.90,ESE,123,0.0,1.0,76,0.00,,---,0.00,VWS V14.01,2013-07-01 07:15:00,
2013-07-01 00:16:00,68.3,60.5,29.90,ESE,122,0.0,1.0,76,0.00,,---,0.00,VWS V14.01,2013-07-01 07:16:00,
2013-07-01 00:20:00,68.3,60.5,29.91,ESE,122,0.0,1.0,76,0.00,,---,0.00,VWS V14.01,2013-07-01 07:20:00,
2013-07-01 00:21:00,68.3,60.5,29.91,ESE,123,0.0,1.0,76,0.00,,---,0.00,VWS V14.01,2013-07-01 07:21:00,
2013-07-01 00:25:00,68.1,60.3,29.90,ESE,123,0.0,0.0,76,0.00,,---,0.00,VWS V14.01,2013-07-01 07:25:00,
2013-07-01 00:26:00,68.1,60.3,29.90,ESE,122,0.0,0.0,76,0.00,,---,0.00,VWS V14.01,2013-07-01 07:26:00,
2013-07-01 00:30:00,67.9,60.4,29.91,ESE,123,0.0,1.0,77,0.00,,---,0.00,VWS V14.01,2013-07-01 07:30:00,
2013-07-01 00:31:00,67.9,60.4,29.91,ESE,123,1.0,1.0,77,0.00,,---,0.00,VWS V14.01,2013-07-01 07:31:00,
2013-07-01 00:35:00,68.0,60.5,29.91,ESE,123,0.0,1.0,77,0.00,,---,0.00,VWS V14.01,2013-07-01 07:35:00,
2013-07-01 00:36:00,68.1,60.6,29.91,ESE,123,0.0,1.0,77,0.00,,---,0.00,VWS V14.01,2013-07-01 07:36:00,
2013-07-01 00:40:00,67.9,60.4,29.91,ESE,123,0.0,1.0,77,0.00,,---,0.00,VWS V14.01,2013-07-01 07:40:00,
2013-07-01 00:41:00,67.9,60.4,29.91,ESE,123,0.0,1.0,77,0.00,,---,0.00,VWS V14.01,2013-07-01 07:41:00,
2013-07-01 00:45:00,67.7,60.6,29.91,ESE,123,0.0,0.0,78,0.00,,---,0.00,VWS V14.01,2013-07-01 07:45:00,
2013-07-01 00:46:00,67.7,60.6,29.91,ESE,123,0.0,0.0,78,0.00,,---,0.00,VWS V14.01,2013-07-01 07:46:00,
2013-07-01 00:50:00,67.5,60.4,29.91,ESE,122,0.0,1.0,78,0.00,,---,0.00,VWS V14.01,2013-07-01 07:50:00,
2013-07-01 00:51:00,67.5,60.4,29.91,ESE,122,0.0,0.0,78,0.00,,---,0.00,VWS V14.01,2013-07-01 07:51:00,
2013-07-01 00:55:00,67.5,60.4,29.91,ESE,122,0.0,1.0,78,0.00,,---,0.00,VWS V14.01,2013-07-01 07:55:00,
2013-07-01 00:56:00,67.5,60.4,29.91,ESE,123,0.0,1.0,78,0.00,,---,0.00,VWS V14.01,2013-07-01 07:56:00,
2013-07-01 01:00:00,67.5,60.4,29.91,ESE,123,0.0,1.0,78,0.00,,---,0.00,VWS V14.01,2013-07-01 08:00:00,
2013-07-01 01:01:00,67.5,60.4,29.91,ESE,123,0.0,1.0,78,0.00,,---,0.00,VWS V14.01,2013-07-01 08:01:00,
2013-07-01 01:05:00,67.4,60.3,29.91,ESE,123,0.0,0.0,78,0.00,,---,0.00,VWS V14.01,2013-07-01 08:05:00,
2013-07-01 01:06:00,67.4,60.3,29.91,ESE,123,0.0,0.0,78,0.00,,---,0.00,VWS V14.01,2013-07-01 08:06:00,
2013-07-01 01:10:00,67.3,60.2,29.91,ESE,122,0.0,0.0,78,0.00,,---,0.00,VWS V14.01,2013-07-01 08:10:00,
2013-07-01 01:11:00,67.3,60.2,29.91,ESE,122,0.0,0.0,78,0.00,,---,0.00,VWS V14.01,2013-07-01 08:11:00,
2013-07-01 01:15:00,67.1,60.0,29.91,ESE,123,0.0,0.0,78,0.00,,---,0.00,VWS V14.01,2013-07-01 08:15:00,
2013-07-01 01:16:00,67.1,60.0,29.91,ESE,123,0.0,0.0,78,0.00,,---,0.00,VWS V14.01,2013-07-01 08:16:00,
2013-07-01 01:20:00,67.1,60.0,29.91,ESE,123,0.0,0.0,78,0.00,,---,0.00,VWS V14.01,2013-07-01 08:20:00,
2013-07-01 01:21:00,67.1,60.0,29.91,ESE,123,0.0,0.0,78,0.00,,---,0.00,VWS V14.01,2013-07-01 08:21:00,
2013-07-01 01:25:00,67.1,60.4,29.91,ESE,122,0.0,0.0,79,0.00,,---,0.00,VWS V14.01,2013-07-01 08:25:00,
2013-07-01 01:26:00,67.1,60.4,29.91,ESE,122,0.0,0.0,79,0.00,,---,0.00,VWS V14.01,2013-07-01 08:26:00,
2013-07-01 01:30:00,67.0,59.9,29.91,ESE,123,0.0,1.0,78,0.00,,---,0.00,VWS V14.01,2013-07-01 08:30:00,
2013-07-01 01:31:00,67.0,59.9,29.91,ESE,123,0.0,1.0,78,0.00,,---,0.00,VWS V14.01,2013-07-01 08:31:00,
2013-07-01 01:35:00,66.9,59.8,29.91,ESE,122,0.0,0.0,78,0.00,,---,0.00,VWS V14.01,2013-07-01 08:35:00,
2013-07-01 01:36:00,67.0,59.9,29.91,ESE,122,0.0,0.0,78,0.00,,---,0.00,VWS V14.01,2013-07-01 08:36:00,
2013-07-01 01:40:00,66.9,59.8,29.91,East,96,1.0,1.0,78,0.00,,---,0.00,VWS V14.01,2013-07-01 08:40:00,
2013-07-01 01:41:00,66.9,59.8,29.91,East,96,1.0,1.0,78,0.00,,---,0.00,VWS V14.01,2013-07-01 08:41:00,
2013-07-01 01:45:00,67.8,59.6,29.91,East,86,2.0,3.0,75,0.00,,---,0.00,VWS V14.01,2013-07-01 08:45:00,
2013-07-01 01:46:00,67.8,59.6,29.91,East,86,2.0,3.0,75,0.00,,---,0.00,VWS V14.01,2013-07-01 08:46:00,
2013-07-01 01:50:00,68.4,59.4,29.91,East,88,1.0,3.0,73,0.00,,---,0.00,VWS V14.01,2013-07-01 08:50:00,
2013-07-01 01:52:00,68.4,59.4,29.91,East,88,0.0,1.0,73,0.00,,---,0.00,VWS V14.01,2013-07-01 08:52:00,
2013-07-01 01:55:00,68.6,59.6,29.91,ESE,103,0.0,2.0,73,0.00,,---,0.00,VWS V14.01,2013-07-01 08:55:00,
2013-07-01 01:57:00,68.6,59.6,29.91,ESE,103,0.0,0.0,73,0.00,,---,0.00,VWS V14.01,2013-07-01 08:57:00,
2013-07-01 02:00:00,68.6,59.6,29.91,East,96,0.0,2.0,73,0.00,,---,0.00,VWS V14.01,2013-07-01 09:00:00,
2013-07-01 02:02:00,68.6,59.6,29.91,East,96,0.0,0.0,73,0.00,,---,0.00,VWS V14.01,2013-07-01 09:02:00,
2013-07-01 02:05:00,68.6,59.6,29.91,East,96,0.0,1.0,73,0.00,,---,0.00,VWS V14.01,2013-07-01 09:05:00,
2013-07-01 02:07:00,68.5,59.5,29.91,East,96,0.0,1.0,73,0.00,,---,0.00,VWS V14.01,2013-07-01 09:07:00,
2013-07-01 02:10:00,68.4,59.8,29.91,East,96,0.0,1.0,74,0.00,,---,0.00,VWS V14.01,2013-07-01 09:10:00,
2013-07-01 02:12:00,68.4,59.8,29.91,East,95,0.0,0.0,74,0.00,,---,0.00,VWS V14.01,2013-07-01 09:12:00,
2013-07-01 02:15:00,68.2,59.6,29.91,East,96,0.0,0.0,74,0.00,,---,0.00,VWS V14.01,2013-07-01 09:15:00,
2013-07-01 02:17:00,68.2,59.6,29.91,East,96,0.0,0.0,74,0.00,,---,0.00,VWS V14.01,2013-07-01 09:17:00,
2013-07-01 02:20:00,67.9,59.7,29.91,East,96,0.0,1.0,75,0.00,,---,0.00,VWS V14.01,2013-07-01 09:20:00,
2013-07-01 02:22:00,67.8,59.2,29.91,East,96,0.0,0.0,74,0.00,,---,0.00,VWS V14.01,2013-07-01 09:22:00,
2013-07-01 02:25:00,67.6,59.4,29.91,East,96,0.0,1.0,75,0.00,,---,0.00,VWS V14.01,2013-07-01 09:25:00,
2013-07-01 02:27:00,67.6,59.4,29.91,East,96,0.0,0.0,75,0.00,,---,0.00,VWS V14.01,2013-07-01 09:27:00,
2013-07-01 02:30:00,67.4,58.8,29.91,East,96,0.0,0.0,74,0.00,,---,0.00,VWS V14.01,2013-07-01 09:30:00,
2013-07-01 02:32:00,67.4,58.8,29.91,East,96,0.0,0.0,74,0.00,,---,0.00,VWS V14.01,2013-07-01 09:32:00,
2013-07-01 02:35:00,67.4,58.8,29.91,East,96,0.0,1.0,74,0.00,,---,0.00,VWS V14.01,2013-07-01 09:35:00,
2013-07-01 02:37:00,67.4,58.8,29.91,East,96,0.0,0.0,74,0.00,,---,0.00,VWS V14.01,2013-07-01 09:37:00,
2013-07-01 02:40:00,67.6,59.0,29.91,East,96,0.0,1.0,74,0.00,,---,0.00,VWS V14.01,2013-07-01 09:40:00,
2013-07-01 02:42:00,67.6,59.0,29.91,East,96,0.0,0.0,74,0.00,,---,0.00,VWS V14.01,2013-07-01 09:42:00,
2013-07-01 02:45:00,67.6,59.0,29.91,East,96,0.0,1.0,74,0.00,,---,0.00,VWS V14.01,2013-07-01 09:45:00,
2013-07-01 02:47:00,67.6,59.0,29.91,East,96,0.0,0.0,74,0.00,,---,0.00,VWS V14.01,2013-07-01 09:47:00,
2013-07-01 02:50:00,67.3,58.4,29.91,East,91,0.0,1.0,73,0.00,,---,0.00,VWS V14.01,2013-07-01 09:50:00,
2013-07-01 02:52:00,67.4,58.8,29.91,East,91,0.0,1.0,74,0.00,,---,0.00,VWS V14.01,2013-07-01 09:52:00,
2013-07-01 02:55:00,67.2,58.6,29.91,East,92,0.0,1.0,74,0.00,,---,0.00,VWS V14.01,2013-07-01 09:55:00,
2013-07-01 02:57:00,67.2,58.6,29.91,East,92,0.0,0.0,74,0.00,,---,0.00,VWS V14.01,2013-07-01 09:57:00,
2013-07-01 03:00:00,67.1,58.5,29.91,East,91,0.0,1.0,74,0.00,,---,0.00,VWS V14.01,2013-07-01 10:00:00,
2013-07-01 03:02:00,67.1,58.5,29.91,East,91,0.0,0.0,74,0.00,,---,0.00,VWS V14.01,2013-07-01 10:02:00,
2013-07-01 03:05:00,66.8,58.3,29.91,East,92,0.0,1.0,74,0.00,,---,0.00,VWS V14.01,2013-07-01 10:05:00,
2013-07-01 03:07:00,66.8,58.3,29.91,East,91,0.0,0.0,74,0.00,,---,0.00,VWS V14.01,2013-07-01 10:07:00,
2013-07-01 03:10:00,66.6,58.4,29.92,East,91,0.0,0.0,75,0.00,,---,0.00,VWS V14.01,2013-07-01 10:10:00,
2013-07-01 03:12:00,66.6,58.4,29.92,East,91,0.0,0.0,75,0.00,,---,0.00,VWS V14.01,2013-07-01 10:12:00,
2013-07-01 03:15:00,66.5,58.7,29.92,East,92,0.0,0.0,76,0.00,,---,0.00,VWS V14.01,2013-07-01 10:15:00,
2013-07-01 03:17:00,66.5,58.7,29.92,East,92,0.0,0.0,76,0.00,,---,0.00,VWS V14.01,2013-07-01 10:17:00,
2013-07-01 03:20:00,66.3,58.9,29.92,East,92,0.0,1.0,77,0.00,,---,0.00,VWS V14.01,2013-07-01 10:20:00,
2013-07-01 03:22:00,66.3,58.9,29.91,East,92,0.0,0.0,77,0.00,,---,0.00,VWS V14.01,2013-07-01 10:22:00,
2013-07-01 03:25:00,66.2,58.4,29.91,East,92,0.0,1.0,76,0.00,,---,0.00,VWS V14.01,2013-07-01 10:25:00,
2013-07-01 03:27:00,66.2,58.4,29.91,East,92,0.0,0.0,76,0.00,,---,0.00,VWS V14.01,2013-07-01 10:27:00,
2013-07-01 03:30:00,66.1,58.3,29.91,ESE,106,0.0,1.0,76,0.00,,---,0.00,VWS V14.01,2013-07-01 10:30:00,
2013-07-01 03:32:00,66.1,58.3,29.91,ESE,106,0.0,0.0,76,0.00,,---,0.00,VWS V14.01,2013-07-01 10:32:00,
2013-07-01 03:35:00,66.0,58.2,29.92,ESE,106,0.0,1.0,76,0.00,,---,0.00,VWS V14.01,2013-07-01 10:35:00,
2013-07-01 03:37:00,66.0,58.2,29.92,ESE,106,0.0,0.0,76,0.00,,---,0.00,VWS V14.01,2013-07-01 10:37:00,
2013-07-01 03:40:00,65.9,58.1,29.92,ESE,106,0.0,0.0,76,0.00,,---,0.00,VWS V14.01,2013-07-01 10:40:00,
2013-07-01 03:42:00,66.0,58.2,29.92,ESE,106,0.0,0.0,76,0.00,,---,0.00,VWS V14.01,2013-07-01 10:42:00,
2013-07-01 03:45:00,66.0,59.0,29.92,ESE,106,0.0,0.0,78,0.00,,---,0.00,VWS V14.01,2013-07-01 10:45:00,
2013-07-01 03:46:00,65.9,58.9,29.92,ESE,106,0.0,0.0,78,0.00,,---,0.00,VWS V14.01,2013-07-01 10:46:00,
2013-07-01 03:50:00,65.8,59.1,29.92,ESE,106,0.0,1.0,79,0.00,,---,0.00,VWS V14.01,2013-07-01 10:50:00,
2013-07-01 03:51:00,65.7,59.0,29.92,ESE,106,0.0,0.0,79,0.00,,---,0.00,VWS V14.01,2013-07-01 10:51:00,
2013-07-01 03:55:00,65.5,59.2,29.92,ESE,106,0.0,0.0,80,0.00,,---,0.00,VWS V14.01,2013-07-01 10:55:00,
2013-07-01 03:56:00,65.5,59.2,29.92,ESE,106,0.0,0.0,80,0.00,,---,0.00,VWS V14.01,2013-07-01 10:56:00,
2013-07-01 04:00:00,65.3,59.0,29.92,ESE,106,0.0,1.0,80,0.00,,---,0.00,VWS V14.01,2013-07-01 11:00:00,
2013-07-01 04:01:00,65.2,59.2,29.92,ESE,106,0.0,0.0,81,0.00,,---,0.00,VWS V14.01,2013-07-01 11:01:00,
2013-07-01 04:05:00,65.1,59.1,29.92,ESE,106,0.0,0.0,81,0.00,,---,0.00,VWS V14.01,2013-07-01 11:05:00,
2013-07-01 04:06:00,65.1,59.1,29.92,ESE,106,0.0,0.0,81,0.00,,---,0.00,VWS V14.01,2013-07-01 11:06:00,
2013-07-01 04:10:00,64.8,58.8,29.92,ESE,106,0.0,0.0,81,0.00,,---,0.00,VWS V14.01,2013-07-01 11:10:00,
2013-07-01 04:11:00,64.8,58.8,29.92,ESE,106,0.0,0.0,81,0.00,,---,0.00,VWS V14.01,2013-07-01 11:11:00,
2013-07-01 04:15:00,64.6,58.7,29.92,ESE,106,0.0,0.0,81,0.00,,---,0.00,VWS V14.01,2013-07-01 11:15:00,
2013-07-01 04:17:00,64.6,58.7,29.92,ESE,106,0.0,0.0,81,0.00,,---,0.00,VWS V14.01,2013-07-01 11:17:00,
2013-07-01 04:20:00,64.5,58.9,29.92,ESE,106,0.0,0.0,82,0.00,,---,0.00,VWS V14.01,2013-07-01 11:20:00,
2013-07-01 04:21:00,64.5,58.9,29.92,ESE,106,0.0,0.0,82,0.00,,---,0.00,VWS V14.01,2013-07-01 11:21:00,
2013-07-01 04:25:00,64.2,58.6,29.93,ESE,106,0.0,0.0,82,0.00,,---,0.00,VWS V14.01,2013-07-01 11:25:00,
2013-07-01 04:26:00,64.2,58.6,29.93,ESE,106,0.0,1.0,82,0.00,,---,0.00,VWS V14.01,2013-07-01 11:26:00,
2013-07-01 04:30:00,64.0,58.4,29.92,ESE,106,0.0,1.0,82,0.00,,---,0.00,VWS V14.01,2013-07-01 11:30:00,
2013-07-01 04:31:00,63.9,58.3,29.92,ESE,106,0.0,0.0,82,0.00,,---,0.00,VWS V14.01,2013-07-01 11:31:00,
2013-07-01 04:35:00,63.9,58.6,29.93,ESE,106,0.0,0.0,83,0.00,,---,0.00,VWS V14.01,2013-07-01 11:35:00,
2013-07-01 04:36:00,63.8,58.5,29.93,ESE,106,0.0,0.0,83,0.00,,---,0.00,VWS V14.01,2013-07-01 11:36:00,
2013-07-01 04:40:00,63.7,58.5,29.93,ESE,106,0.0,0.0,83,0.00,,---,0.00,VWS V14.01,2013-07-01 11:40:00,
2013-07-01 04:41:00,63.7,58.5,29.93,ESE,106,0.0,0.0,83,0.00,,---,0.00,VWS V14.01,2013-07-01 11:41:00,
2013-07-01 04:45:00,63.6,58.3,29.93,ESE,106,0.0,1.0,83,0.00,,---,0.00,VWS V14.01,2013-07-01 11:45:00,
2013-07-01 04:46:00,63.6,58.3,29.93,ESE,106,0.0,0.0,83,0.00,,---,0.00,VWS V14.01,2013-07-01 11:46:00,
2013-07-01 04:50:00,63.6,58.3,29.93,ESE,106,0.0,1.0,83,0.00,,---,0.00,VWS V14.01,2013-07-01 11:50:00,
2013-07-01 04:51:00,63.7,58.5,29.93,ESE,106,0.0,0.0,83,0.00,,---,0.00,VWS V14.01,2013-07-01 11:51:00,
2013-07-01 04:55:00,63.5,58.2,29.93,ESE,106,0.0,0.0,83,0.00,,---,0.00,VWS V14.01,2013-07-01 11:55:00,
2013-07-01 04:56:00,63.5,58.2,29.93,ESE,106,0.0,0.0,83,0.00,,---,0.00,VWS V14.01,2013-07-01 11:56:00,
2013-07-01 05:00:00,63.4,58.2,29.93,ESE,106,0.0,0.0,83,0.00,,---,0.00,VWS V14.01,2013-07-01 12:00:00,
2013-07-01 05:01:00,63.4,58.2,29.93,ESE,106,0.0,0.0,83,0.00,,---,0.00,VWS V14.01,2013-07-01 12:01:00,
2013-07-01 05:05:00,63.2,58.0,29.94,ESE,106,0.0,0.0,83,0.00,,---,0.00,VWS V14.01,2013-07-01 12:05:00,
2013-07-01 05:06:00,63.2,58.0,29.93,ESE,106,0.0,0.0,83,0.00,,---,0.00,VWS V14.01,2013-07-01 12:06:00,
2013-07-01 05:10:00,63.0,57.8,29.93,ESE,106,0.0,0.0,83,0.00,,---,0.00,VWS V14.01,2013-07-01 12:10:00,
2013-07-01 05:11:00,63.0,57.8,29.94,ESE,106,0.0,0.0,83,0.00,,---,0.00,VWS V14.01,2013-07-01 12:11:00,
2013-07-01 05:15:00,62.8,57.6,29.94,ESE,106,0.0,1.0,83,0.00,,---,0.00,VWS V14.01,2013-07-01 12:15:00,
2013-07-01 05:16:00,62.8,57.6,29.93,ESE,106,0.0,0.0,83,0.00,,---,0.00,VWS V14.01,2013-07-01 12:16:00,
2013-07-01 05:20:00,62.7,57.5,29.94,ESE,106,0.0,0.0,83,0.00,,---,0.00,VWS V14.01,2013-07-01 12:20:00,
2013-07-01 05:21:00,62.6,57.4,29.93,ESE,106,0.0,0.0,83,0.00,,---,0.00,VWS V14.01,2013-07-01 12:21:00,
2013-07-01 05:25:00,62.5,57.6,29.94,ESE,106,0.0,0.0,84,0.00,,---,0.00,VWS V14.01,2013-07-01 12:25:00,
2013-07-01 05:26:00,62.5,57.6,29.94,ESE,106,0.0,0.0,84,0.00,,---,0.00,VWS V14.01,2013-07-01 12:26:00,
2013-07-01 05:30:00,62.4,57.5,29.94,ESE,106,0.0,1.0,84,0.00,,---,0.00,VWS V14.01,2013-07-01 12:30:00,
2013-07-01 05:31:00,62.4,57.5,29.94,ESE,106,0.0,0.0,84,0.00,,---,0.00,VWS V14.01,2013-07-01 12:31:00,
2013-07-01 05:35:00,62.5,57.6,29.94,ESE,106,0.0,1.0,84,0.00,,---,0.00,VWS V14.01,2013-07-01 12:35:00,
2013-07-01 05:36:00,62.5,57.6,29.94,ESE,106,0.0,0.0,84,0.00,,---,0.00,VWS V14.01,2013-07-01 12:36:00,
2013-07-01 05:40:00,62.4,57.2,29.94,ESE,106,0.0,0.0,83,0.00,,---,0.00,VWS V14.01,2013-07-01 12:40:00,
2013-07-01 05:41:00,62.4,57.2,29.94,ESE,106,0.0,0.0,83,0.00,,---,0.00,VWS V14.01,2013-07-01 12:41:00,
2013-07-01 05:45:00,62.2,57.3,29.94,ESE,106,0.0,0.0,84,0.00,,---,0.00,VWS V14.01,2013-07-01 12:45:00,
2013-07-01 05:46:00,62.2,57.3,29.94,ESE,106,0.0,0.0,84,0.00,,---,0.00,VWS V14.01,2013-07-01 12:46:00,
2013-07-01 05:50:00,62.2,57.3,29.94,ESE,106,0.0,0.0,84,0.00,,---,0.00,VWS V14.01,2013-07-01 12:50:00,
2013-07-01 05:51:00,62.1,57.2,29.94,ESE,106,0.0,0.0,84,0.00,,---,0.00,VWS V14.01,2013-07-01 12:51:00,
2013-07-01 05:55:00,62.1,57.2,29.94,ESE,106,0.0,0.0,84,0.00,,---,0.00,VWS V14.01,2013-07-01 12:55:00,
2013-07-01 05:56:00,62.1,57.2,29.94,ESE,106,0.0,0.0,84,0.00,,---,0.00,VWS V14.01,2013-07-01 12:56:00,
2013-07-01 06:00:00,62.1,57.2,29.94,ESE,106,0.0,0.0,84,0.00,,---,0.00,VWS V14.01,2013-07-01 13:00:00,
2013-07-01 06:01:00,62.1,57.2,29.94,ESE,106,0.0,0.0,84,0.00,,---,0.00,VWS V14.01,2013-07-01 13:01:00,
2013-07-01 06:05:00,62.2,57.3,29.94,ESE,106,0.0,0.0,84,0.00,,---,0.00,VWS V14.01,2013-07-01 13:05:00,
2013-07-01 06:06:00,62.2,57.3,29.94,ESE,106,0.0,0.0,84,0.00,,---,0.00,VWS V14.01,2013-07-01 13:06:00,
2013-07-01 06:10:00,62.2,57.3,29.94,ESE,106,0.0,0.0,84,0.00,,---,0.00,VWS V14.01,2013-07-01 13:10:00,
2013-07-01 06:11:00,62.2,57.3,29.94,ESE,106,0.0,0.0,84,0.00,,---,0.00,VWS V14.01,2013-07-01 13:11:00,
2013-07-01 06:15:00,62.2,57.3,29.94,ESE,106,0.0,0.0,84,0.00,,---,0.00,VWS V14.01,2013-07-01 13:15:00,
2013-07-01 06:16:00,62.2,57.3,29.94,ESE,106,0.0,0.0,84,0.00,,---,0.00,VWS V14.01,2013-07-01 13:16:00,
2013-07-01 06:20:00,62.2,57.3,29.94,ESE,106,0.0,0.0,84,0.00,,---,0.00,VWS V14.01,2013-07-01 13:20:00,
2013-07-01 06:21:00,62.2,57.3,29.94,ESE,106,0.0,0.0,84,0.00,,---,0.00,VWS V14.01,2013-07-01 13:21:00,
2013-07-01 06:25:00,62.2,57.3,29.94,ESE,106,0.0,0.0,84,0.00,,---,0.00,VWS V14.01,2013-07-01 13:25:00,
2013-07-01 06:26:00,62.2,57.3,29.95,ESE,106,0.0,0.0,84,0.00,,---,0.00,VWS V14.01,2013-07-01 13:26:00,
2013-07-01 06:30:00,62.5,57.6,29.95,ESE,106,0.0,1.0,84,0.00,,---,0.00,VWS V14.01,2013-07-01 13:30:00,
2013-07-01 06:31:00,62.5,57.6,29.95,ESE,106,0.0,0.0,84,0.00,,---,0.00,VWS V14.01,2013-07-01 13:31:00,
2013-07-01 06:35:00,62.6,57.7,29.95,ESE,106,0.0,0.0,84,0.00,,---,0.00,VWS V14.01,2013-07-01 13:35:00,
2013-07-01 06:36:00,62.6,57.7,29.95,ESE,106,0.0,0.0,84,0.00,,---,0.00,VWS V14.01,2013-07-01 13:36:00,
2013-07-01 06:40:00,62.7,57.8,29.95,WSW,238,0.0,0.0,84,0.00,,---,0.00,VWS V14.01,2013-07-01 13:40:00,
2013-07-01 06:41:00,62.6,57.7,29.95,WSW,238,0.0,0.0,84,0.00,,---,0.00,VWS V14.01,2013-07-01 13:41:00,
2013-07-01 06:45:00,62.7,57.8,29.95,WSW,238,0.0,0.0,84,0.00,,---,0.00,VWS V14.01,2013-07-01 13:45:00,
2013-07-01 06:46:00,62.7,57.8,29.95,WSW,238,0.0,0.0,84,0.00,,---,0.00,VWS V14.01,2013-07-01 13:46:00,
2013-07-01 06:50:00,62.9,58.0,29.95,WSW,238,0.0,1.0,84,0.00,,---,0.00,VWS V14.01,2013-07-01 13:50:00,
2013-07-01 06:51:00,62.9,58.0,29.95,WSW,238,0.0,0.0,84,0.00,,---,0.00,VWS V14.01,2013-07-01 13:51:00,
2013-07-01 06:55:00,63.1,57.9,29.95,WSW,238,0.0,0.0,83,0.00,,---,0.00,VWS V14.01,2013-07-01 13:55:00,
2013-07-01 06:56:00,63.1,57.9,29.95,WSW,238,0.0,0.0,83,0.00,,---,0.00,VWS V14.01,2013-07-01 13:56:00,
2013-07-01 07:00:00,63.4,58.2,29.95,WSW,238,0.0,1.0,83,0.00,,---,0.00,VWS V14.01,2013-07-01 14:00:00,
2013-07-01 07:01:00,63.4,58.2,29.95,WSW,238,0.0,0.0,83,0.00,,---,0.00,VWS V14.01,2013-07-01 14:01:00,
2013-07-01 07:05:00,63.9,58.6,29.96,WSW,238,0.0,1.0,83,0.00,,---,0.00,VWS V14.01,2013-07-01 14:05:00,
2013-07-01 07:06:00,63.9,58.6,29.96,WSW,238,0.0,0.0,83,0.00,,---,0.00,VWS V14.01,2013-07-01 14:06:00,
2013-07-01 07:10:00,64.5,58.9,29.96,WSW,238,0.0,1.0,82,0.00,,---,0.00,VWS V14.01,2013-07-01 14:10:00,
2013-07-01 07:11:00,64.5,58.9,29.96,WSW,238,0.0,0.0,82,0.00,,---,0.00,VWS V14.01,2013-07-01 14:11:00,
2013-07-01 07:15:00,65.0,59.4,29.96,WSW,238,0.0,1.0,82,0.00,,---,0.00,VWS V14.01,2013-07-01 14:15:00,
2013-07-01 07:16:00,65.0,59.0,29.96,WSW,238,0.0,0.0,81,0.00,,---,0.00,VWS V14.01,2013-07-01 14:16:00,
2013-07-01 07:20:00,65.9,59.6,29.96,WSW,238,0.0,1.0,80,0.00,,---,0.00,VWS V14.01,2013-07-01 14:20:00,
2013-07-01 07:21:00,65.9,59.2,29.96,WSW,238,1.0,1.0,79,0.00,,---,0.00,VWS V14.01,2013-07-01 14:21:00,
2013-07-01 07:25:00,66.3,59.6,29.96,WSW,238,0.0,1.0,79,0.00,,---,0.00,VWS V14.01,2013-07-01 14:25:00,
2013-07-01 07:26:00,66.3,59.6,29.96,WSW,238,0.0,0.0,79,0.00,,---,0.00,VWS V14.01,2013-07-01 14:26:00,
2013-07-01 07:30:00,67.2,60.1,29.96,WSW,238,0.0,1.0,78,0.00,,---,0.00,VWS V14.01,2013-07-01 14:30:00,
2013-07-01 07:31:00,67.2,60.1,29.96,WSW,238,0.0,0.0,78,0.00,,---,0.00,VWS V14.01,2013-07-01 14:31:00,
2013-07-01 07:35:00,67.6,59.8,29.96,West,264,1.0,2.0,76,0.00,,---,0.00,VWS V14.01,2013-07-01 14:35:00,
2013-07-01 07:36:00,67.6,59.8,29.95,West,264,1.0,1.0,76,0.00,,---,0.00,VWS V14.01,2013-07-01 14:36:00,
2013-07-01 07:40:00,67.0,59.6,29.95,NW,308,0.0,2.0,77,0.00,,---,0.00,VWS V14.01,2013-07-01 14:40:00,
2013-07-01 07:41:00,67.0,59.6,29.95,NW,308,0.0,0.0,77,0.00,,---,0.00,VWS V14.01,2013-07-01 14:41:00,
2013-07-01 07:45:00,67.1,59.7,29.95,NW,307,1.0,1.0,77,0.00,,---,0.00,VWS V14.01,2013-07-01 14:45:00,
2013-07-01 07:46:00,67.1,59.7,29.95,NW,307,0.0,1.0,77,0.00,,---,0.00,VWS V14.01,2013-07-01 14:46:00,
2013-07-01 07:50:00,67.3,59.5,29.95,NW,307,0.0,1.0,76,0.00,,---,0.00,VWS V14.01,2013-07-01 14:50:00,
2013-07-01 07:51:00,67.3,59.5,29.95,NW,307,0.0,0.0,76,0.00,,---,0.00,VWS V14.01,2013-07-01 14:51:00,
2013-07-01 07:55:00,67.6,59.8,29.95,WNW,300,2.0,2.0,76,0.00,,---,0.00,VWS V14.01,2013-07-01 14:55:00,
2013-07-01 07:56:00,67.6,59.8,29.95,WNW,300,2.0,2.0,76,0.00,,---,0.00,VWS V14.01,2013-07-01 14:56:00,
2013-07-01 08:00:00,67.9,59.7,29.95,WNW,295,0.0,2.0,75,0.00,,---,0.00,VWS V14.01,2013-07-01 15:00:00,
2013-07-01 08:01:00,67.9,59.7,29.95,WNW,295,0.0,2.0,75,0.00,,---,0.00,VWS V14.01,2013-07-01 15:01:00,
2013-07-01 08:05:00,68.3,59.7,29.95,SW,217,0.0,2.0,74,0.00,,---,0.00,VWS V14.01,2013-07-01 15:05:00,
2013-07-01 08:06:00,68.3,59.7,29.95,SW,217,0.0,2.0,74,0.00,,---,0.00,VWS V14.01,2013-07-01 15:06:00,
2013-07-01 08:10:00,68.8,60.2,29.95,SW,231,1.0,1.0,74,0.00,,---,0.00,VWS V14.01,2013-07-01 15:10:00,
2013-07-01 08:11:00,68.8,60.2,29.95,SW,231,1.0,1.0,74,0.00,,---,0.00,VWS V14.01,2013-07-01 15:11:00,
2013-07-01 08:15:00,69.2,60.2,29.95,SW,230,2.0,2.0,73,0.00,,---,0.00,VWS V14.01,2013-07-01 15:15:00,
2013-07-01 08:16:00,69.2,60.2,29.95,SW,230,2.0,2.0,73,0.00,,---,0.00,VWS V14.01,2013-07-01 15:16:00,
2013-07-01 08:20:00,69.5,60.1,29.95,SW,230,1.0,2.0,72,0.00,,---,0.00,VWS V14.01,2013-07-01 15:20:00,
2013-07-01 08:21:00,69.5,60.1,29.95,SW,230,1.0,2.0,72,0.00,,---,0.00,VWS V14.01,2013-07-01 15:21:00,
2013-07-01 08:25:00,69.7,60.3,29.95,NNW,328,2.0,3.0,72,0.00,,---,0.00,VWS V14.01,2013-07-01 15:25:00,
2013-07-01 08:26:00,69.7,60.3,29.95,NNW,330,2.0,3.0,72,0.00,,---,0.00,VWS V14.01,2013-07-01 15:26:00,
2013-07-01 08:30:00,69.6,60.2,29.95,WNW,290,0.0,3.0,72,0.00,,---,0.00,VWS V14.01,2013-07-01 15:30:00,
2013-07-01 08:31:00,69.6,60.2,29.95,WNW,290,0.0,3.0,72,0.00,,---,0.00,VWS V14.01,2013-07-01 15:31:00,
2013-07-01 08:35:00,69.6,60.2,29.95,WSW,250,3.0,4.0,72,0.00,,---,0.00,VWS V14.01,2013-07-01 15:35:00,
2013-07-01 08:36:00,69.6,60.2,29.95,WSW,250,3.0,4.0,72,0.00,,---,0.00,VWS V14.01,2013-07-01 15:36:00,
2013-07-01 08:40:00,69.5,59.7,29.95,WNW,302,3.0,3.0,71,0.00,,---,0.00,VWS V14.01,2013-07-01 15:40:00,
2013-07-01 08:41:00,69.5,59.7,29.95,WNW,302,3.0,3.0,71,0.00,,---,0.00,VWS V14.01,2013-07-01 15:41:00,
2013-07-01 08:45:00,69.7,60.3,29.95,NW,317,2.0,4.0,72,0.00,,---,0.00,VWS V14.01,2013-07-01 15:45:00,
2013-07-01 08:46:00,69.7,60.3,29.95,NW,315,2.0,4.0,72,0.00,,---,0.00,VWS V14.01,2013-07-01 15:46:00,
2013-07-01 08:50:00,69.9,60.1,29.95,West,271,1.0,4.0,71,0.00,,---,0.00,VWS V14.01,2013-07-01 15:50:00,
2013-07-01 08:51:00,69.9,60.1,29.95,West,271,1.0,4.0,71,0.00,,---,0.00,VWS V14.01,2013-07-01 15:51:00,
2013-07-01 08:55:00,70.3,60.5,29.95,WNW,294,1.0,2.0,71,0.00,,---,0.00,VWS V14.01,2013-07-01 15:55:00,
2013-07-01 08:56:00,70.3,60.5,29.95,WNW,294,1.0,2.0,71,0.00,,---,0.00,VWS V14.01,2013-07-01 15:56:00,
2013-07-01 09:00:00,70.6,60.3,29.94,NW,316,4.0,5.0,70,0.00,,---,0.00,VWS V14.01,2013-07-01 16:00:00,
2013-07-01 09:01:00,70.6,60.3,29.94,NW,316,4.0,5.0,70,0.00,,---,0.00,VWS V14.01,2013-07-01 16:01:00,
2013-07-01 09:05:00,70.3,60.1,29.95,WNW,288,4.0,7.0,70,0.00,,---,0.00,VWS V14.01,2013-07-01 16:05:00,
2013-07-01 09:06:00,70.3,60.1,29.95,WNW,288,4.0,7.0,70,0.00,,---,0.00,VWS V14.01,2013-07-01 16:06:00,
2013-07-01 09:10:00,69.9,60.1,29.94,NW,320,3.0,5.0,71,0.00,,---,0.00,VWS V14.01,2013-07-01 16:10:00,
2013-07-01 09:11:00,69.9,60.1,29.94,NW,320,3.0,5.0,71,0.00,,---,0.00,VWS V14.01,2013-07-01 16:11:00,
2013-07-01 09:15:00,69.6,59.8,29.94,NW,306,2.0,5.0,71,0.00,,---,0.00,VWS V14.01,2013-07-01 16:15:00,
2013-07-01 09:16:00,69.6,59.8,29.94,WNW,296,2.0,5.0,71,0.00,,---,0.00,VWS V14.01,2013-07-01 16:16:00,
2013-07-01 09:20:00,69.9,60.5,29.94,WNW,299,1.0,4.0,72,0.00,,---,0.00,VWS V14.01,2013-07-01 16:20:00,
2013-07-01 09:21:00,69.9,60.5,29.94,WNW,293,1.0,4.0,72,0.00,,---,0.00,VWS V14.01,2013-07-01 16:21:00,
2013-07-01 09:25:00,70.4,60.6,29.94,WNW,295,2.0,3.0,71,0.00,,---,0.00,VWS V14.01,2013-07-01 16:25:00,
2013-07-01 09:26:00,70.4,60.6,29.94,WNW,294,2.0,3.0,71,0.00,,---,0.00,VWS V14.01,2013-07-01 16:26:00,
2013-07-01 09:30:00,70.5,60.7,29.94,West,278,1.0,3.0,71,0.00,,---,0.00,VWS V14.01,2013-07-01 16:30:00,
2013-07-01 09:31:00,70.5,60.7,29.94,West,278,1.0,3.0,71,0.00,,---,0.00,VWS V14.01,2013-07-01 16:31:00,
2013-07-01 09:35:00,70.5,60.3,29.94,WNW,294,2.0,4.0,70,0.00,,---,0.00,VWS V14.01,2013-07-01 16:35:00,
2013-07-01 09:36:00,70.5,60.3,29.94,WNW,293,2.0,4.0,70,0.00,,---,0.00,VWS V14.01,2013-07-01 16:36:00,
2013-07-01 09:40:00,70.8,60.9,29.95,WNW,300,3.0,4.0,71,0.00,,---,0.00,VWS V14.01,2013-07-01 16:40:00,
2013-07-01 09:41:00,70.8,60.9,29.95,WNW,290,3.0,4.0,71,0.00,,---,0.00,VWS V14.01,2013-07-01 16:41:00,
2013-07-01 09:45:00,71.1,61.2,29.94,SW,221,2.0,6.0,71,0.00,,---,0.00,VWS V14.01,2013-07-01 16:45:00,
2013-07-01 09:46:00,71.1,61.2,29.94,WSW,242,2.0,6.0,71,0.00,,---,0.00,VWS V14.01,2013-07-01 16:46:00,
2013-07-01 09:50:00,71.3,61.0,29.94,West,277,0.0,3.0,70,0.00,,---,0.00,VWS V14.01,2013-07-01 16:50:00,
2013-07-01 09:51:00,71.3,61.0,29.94,West,277,0.0,3.0,70,0.00,,---,0.00,VWS V14.01,2013-07-01 16:51:00,
2013-07-01 09:55:00,71.6,61.3,29.94,West,278,1.0,4.0,70,0.00,,---,0.00,VWS V14.01,2013-07-01 16:55:00,
2013-07-01 09:56:00,71.6,61.3,29.94,West,278,1.0,4.0,70,0.00,,---,0.00,VWS V14.01,2013-07-01 16:56:00,
2013-07-01 10:00:00,71.9,61.2,29.93,WNW,300,3.0,4.0,69,0.00,,---,0.00,VWS V14.01,2013-07-01 17:00:00,
2013-07-01 10:01:00,71.9,62.0,29.93,WNW,290,4.0,4.0,71,0.00,,---,0.00,VWS V14.01,2013-07-01 17:01:00,
2013-07-01 10:05:00,71.7,61.0,29.93,NNW,328,1.0,4.0,69,0.00,,---,0.00,VWS V14.01,2013-07-01 17:05:00,
2013-07-01 10:06:00,71.8,61.1,29.93,NW,314,1.0,4.0,69,0.00,,---,0.00,VWS V14.01,2013-07-01 17:06:00,
2013-07-01 10:10:00,72.0,60.9,29.93,WNW,285,4.0,5.0,68,0.00,,---,0.00,VWS V14.01,2013-07-01 17:10:00,
2013-07-01 10:11:00,72.0,60.9,29.93,WNW,286,4.0,5.0,68,0.00,,---,0.00,VWS V14.01,2013-07-01 17:11:00,
2013-07-01 10:15:00,72.1,61.8,29.93,NW,321,3.0,6.0,70,0.00,,---,0.00,VWS V14.01,2013-07-01 17:15:00,
2013-07-01 10:16:00,72.0,61.7,29.93,WNW,287,4.0,6.0,70,0.00,,---,0.00,VWS V14.01,2013-07-01 17:16:00,
2013-07-01 10:20:00,72.3,61.6,29.93,WNW,291,5.0,6.0,69,0.00,,---,0.00,VWS V14.01,2013-07-01 17:20:00,
2013-07-01 10:21:00,72.3,61.6,29.93,WNW,293,5.0,6.0,69,0.00,,---,0.00,VWS V14.01,2013-07-01 17:21:00,
2013-07-01 10:25:00,72.6,61.4,29.92,NNW,333,2.0,10.0,68,0.00,,---,0.00,VWS V14.01,2013-07-01 17:25:00,
2013-07-01 10:26:00,72.6,61.4,29.92,NW,304,3.0,10.0,68,0.00,,---,0.00,VWS V14.01,2013-07-01 17:26:00,
2013-07-01 10:30:00,72.6,61.0,29.93,NW,316,3.0,8.0,67,0.00,,---,0.00,VWS V14.01,2013-07-01 17:30:00,
2013-07-01 10:31:00,72.6,61.0,29.93,NW,316,3.0,8.0,67,0.00,,---,0.00,VWS V14.01,2013-07-01 17:31:00,
2013-07-01 10:35:00,72.7,61.1,29.92,NW,304,4.0,7.0,67,0.00,,---,0.00,VWS V14.01,2013-07-01 17:35:00,
2013-07-01 10:36:00,72.6,61.0,29.92,NNW,347,4.0,7.0,67,0.00,,---,0.00,VWS V14.01,2013-07-01 17:36:00,
2013-07-01 10:40:00,72.7,61.1,29.93,West,279,4.0,7.0,67,0.00,,---,0.00,VWS V14.01,2013-07-01 17:40:00,
2013-07-01 10:41:00,72.7,60.7,29.93,NNW,342,3.0,7.0,66,0.00,,---,0.00,VWS V14.01,2013-07-01 17:41:00,
2013-07-01 10:45:00,72.3,60.3,29.93,West,278,5.0,7.0,66,0.00,,---,0.00,VWS V14.01,2013-07-01 17:45:00,
2013-07-01 10:46:00,72.3,60.3,29.93,WNW,295,6.0,7.0,66,0.00,,---,0.00,VWS V14.01,2013-07-01 17:46:00,
2013-07-01 10:50:00,72.1,60.5,29.93,WNW,285,5.0,8.0,67,0.00,,---,0.00,VWS V14.01,2013-07-01 17:50:00,
2013-07-01 10:51:00,72.1,60.5,29.93,West,281,4.0,8.0,67,0.00,,---,0.00,VWS V14.01,2013-07-01 17:51:00,
2013-07-01 10:55:00,72.4,60.8,29.93,WNW,291,2.0,9.0,67,0.00,,---,0.00,VWS V14.01,2013-07-01 17:55:00,
2013-07-01 10:56:00,72.3,60.7,29.93,WNW,294,3.0,9.0,67,0.00,,---,0.00,VWS V14.01,2013-07-01 17:56:00,
2013-07-01 11:00:00,72.2,60.2,29.93,NW,318,1.0,8.0,66,0.00,,---,0.00,VWS V14.01,2013-07-01 18:00:00,
2013-07-01 11:01:00,72.2,60.2,29.93,NNE,16,3.0,8.0,66,0.00,,---,0.00,VWS V14.01,2013-07-01 18:01:00,
2013-07-01 11:05:00,72.4,59.5,29.93,WNW,293,10.0,11.0,64,0.00,,---,0.00,VWS V14.01,2013-07-01 18:05:00,
2013-07-01 11:06:00,72.4,59.5,29.93,WNW,287,11.0,11.0,64,0.00,,---,0.00,VWS V14.01,2013-07-01 18:06:00,
2013-07-01 11:10:00,72.0,60.0,29.93,WNW,290,3.0,10.0,66,0.00,,---,0.00,VWS V14.01,2013-07-01 18:10:00,
2013-07-01 11:11:00,72.0,60.0,29.93,West,276,2.0,10.0,66,0.00,,---,0.00,VWS V14.01,2013-07-01 18:11:00,
2013-07-01 11:15:00,72.6,60.2,29.93,NW,304,6.0,8.0,65,0.00,,---,0.00,VWS V14.01,2013-07-01 18:15:00,
2013-07-01 11:16:00,72.5,60.1,29.93,North,360,6.0,8.0,65,0.00,,---,0.00,VWS V14.01,2013-07-01 18:16:00,
2013-07-01 11:20:00,72.6,59.3,29.93,NW,308,3.0,8.0,63,0.00,,---,0.00,VWS V14.01,2013-07-01 18:20:00,
2013-07-01 11:21:00,72.5,59.2,29.93,WNW,297,2.0,8.0,63,0.00,,---,0.00,VWS V14.01,2013-07-01 18:21:00,
2013-07-01 11:25:00,73.2,59.9,29.93,WNW,293,4.0,7.0,63,0.00,,---,0.00,VWS V14.01,2013-07-01 18:25:00,
2013-07-01 11:26:00,73.3,60.0,29.93,WNW,300,5.0,7.0,63,0.00,,---,0.00,VWS V14.01,2013-07-01 18:26:00,
2013-07-01 11:30:00,73.0,59.7,29.93,WNW,293,3.0,8.0,63,0.00,,---,0.00,VWS V14.01,2013-07-01 18:30:00,
2013-07-01 11:31:00,73.0,59.7,29.93,WNW,294,5.0,8.0,63,0.00,,---,0.00,VWS V14.01,2013-07-01 18:31:00,
2013-07-01 11:35:00,73.3,60.0,29.93,NW,311,3.0,8.0,63,0.00,,---,0.00,VWS V14.01,2013-07-01 18:35:00,
2013-07-01 11:36:00,73.3,60.0,29.93,NNW,328,5.0,8.0,63,0.00,,---,0.00,VWS V14.01,2013-07-01 18:36:00,
2013-07-01 11:40:00,73.2,59.4,29.93,WNW,301,4.0,9.0,62,0.00,,---,0.00,VWS V14.01,2013-07-01 18:40:00,
2013-07-01 11:41:00,73.2,59.4,29.93,WNW,299,8.0,9.0,62,0.00,,---,0.00,VWS V14.01,2013-07-01 18:41:00,
2013-07-01 11:45:00,73.8,60.4,29.93,West,274,1.0,8.0,63,0.00,,---,0.00,VWS V14.01,2013-07-01 18:45:00,
2013-07-01 11:46:00,73.8,60.4,29.93,WNW,301,3.0,8.0,63,0.00,,---,0.00,VWS V14.01,2013-07-01 18:46:00,
2013-07-01 11:50:00,73.8,60.0,29.93,NW,314,2.0,8.0,62,0.00,,---,0.00,VWS V14.01,2013-07-01 18:50:00,
2013-07-01 11:51:00,73.9,60.1,29.93,WNW,290,2.0,8.0,62,0.00,,---,0.00,VWS V14.01,2013-07-01 18:51:00,
2013-07-01 11:55:00,74.6,61.2,29.93,WNW,294,3.0,6.0,63,0.00,,---,0.00,VWS V14.01,2013-07-01 18:55:00,
2013-07-01 11:56:00,74.6,61.2,29.93,WNW,283,2.0,6.0,63,0.00,,---,0.00,VWS V14.01,2013-07-01 18:56:00,
2013-07-01 12:00:00,74.5,60.2,29.93,WNW,285,3.0,8.0,61,0.00,,---,0.00,VWS V14.01,2013-07-01 19:00:00,
2013-07-01 12:01:00,74.5,60.2,29.93,WSW,255,5.0,8.0,61,0.00,,---,0.00,VWS V14.01,2013-07-01 19:01:00,
2013-07-01 12:05:00,74.4,60.5,29.93,WNW,283,3.0,7.0,62,0.00,,---,0.00,VWS V14.01,2013-07-01 19:05:00,
2013-07-01 12:06:00,74.4,60.5,29.93,West,267,3.0,7.0,62,0.00,,---,0.00,VWS V14.01,2013-07-01 19:06:00,
2013-07-01 12:10:00,75.0,60.7,29.94,NW,309,3.0,5.0,61,0.00,,---,0.00,VWS V14.01,2013-07-01 19:10:00,
2013-07-01 12:11:00,75.0,60.7,29.94,WNW,286,3.0,5.0,61,0.00,,---,0.00,VWS V14.01,2013-07-01 19:11:00,
2013-07-01 12:15:00,75.3,60.9,29.94,NNW,341,2.0,6.0,61,0.00,,---,0.00,VWS V14.01,2013-07-01 19:15:00,
2013-07-01 12:16:00,75.3,60.9,29.94,NW,323,3.0,6.0,61,0.00,,---,0.00,VWS V14.01,2013-07-01 19:16:00,
2013-07-01 12:20:00,75.5,60.7,29.94,WNW,288,3.0,7.0,60,0.00,,---,0.00,VWS V14.01,2013-07-01 19:20:00,
2013-07-01 12:21:00,75.5,60.7,29.94,WNW,294,4.0,7.0,60,0.00,,---,0.00,VWS V14.01,2013-07-01 19:21:00,
2013-07-01 12:25:00,76.0,61.6,29.94,WNW,293,1.0,4.0,61,0.00,,---,0.00,VWS V14.01,2013-07-01 19:25:00,
2013-07-01 12:26:00,76.0,61.6,29.94,WSW,242,2.0,4.0,61,0.00,,---,0.00,VWS V14.01,2013-07-01 19:26:00,
2013-07-01 12:30:00,76.7,61.8,29.94,WNW,302,2.0,7.0,60,0.00,,---,0.00,VWS V14.01,2013-07-01 19:30:00,
2013-07-01 12:31:00,76.7,61.8,29.94,NNW,331,3.0,7.0,60,0.00,,---,0.00,VWS V14.01,2013-07-01 19:31:00,
2013-07-01 12:35:00,76.5,61.1,29.94,NNW,329,4.0,8.0,59,0.00,,---,0.00,VWS V14.01,2013-07-01 19:35:00,
2013-07-01 12:36:00,76.6,61.2,29.94,WNW,288,4.0,8.0,59,0.00,,---,0.00,VWS V14.01,2013-07-01 19:36:00,
2013-07-01 12:40:00,76.8,61.4,29.94,West,261,1.0,5.0,59,0.00,,---,0.00,VWS V14.01,2013-07-01 19:40:00,
2013-07-01 12:41:00,76.8,61.4,29.94,West,267,2.0,5.0,59,0.00,,---,0.00,VWS V14.01,2013-07-01 19:41:00,
2013-07-01 12:45:00,77.3,62.3,29.94,NW,307,6.0,7.0,60,0.00,,---,0.00,VWS V14.01,2013-07-01 19:45:00,
2013-07-01 12:46:00,77.2,62.2,29.94,WNW,286,6.0,7.0,60,0.00,,---,0.00,VWS V14.01,2013-07-01 19:46:00,
2013-07-01 12:50:00,78.0,62.0,29.94,WNW,290,5.0,6.0,58,0.00,,---,0.00,VWS V14.01,2013-07-01 19:50:00,
2013-07-01 12:51:00,77.9,62.4,29.94,NW,308,5.0,6.0,59,0.00,,---,0.00,VWS V14.01,2013-07-01 19:51:00,
2013-07-01 12:55:00,77.7,61.8,29.94,WNW,283,4.0,7.0,58,0.00,,---,0.00,VWS V14.01,2013-07-01 19:55:00,
2013-07-01 12:56:00,77.7,61.8,29.94,WNW,300,6.0,7.0,58,0.00,,---,0.00,VWS V14.01,2013-07-01 19:56:00,
2013-07-01 13:00:00,78.1,62.6,29.94,WNW,300,2.0,6.0,59,0.00,,---,0.00,VWS V14.01,2013-07-01 20:00:00,
2013-07-01 13:01:00,78.0,62.5,29.94,NNW,330,2.0,6.0,59,0.00,,---,0.00,VWS V14.01,2013-07-01 20:01:00,
2013-07-01 13:05:00,78.8,62.8,29.94,North,11,1.0,5.0,58,0.00,,---,0.00,VWS V14.01,2013-07-01 20:05:00,
2013-07-01 13:06:00,78.8,62.8,29.94,NNW,333,2.0,5.0,58,0.00,,---,0.00,VWS V14.01,2013-07-01 20:06:00,
2013-07-01 13:10:00,79.1,62.6,29.94,NW,306,3.0,4.0,57,0.00,,---,0.00,VWS V14.01,2013-07-01 20:10:00,
2013-07-01 13:11:00,79.1,62.6,29.94,NW,304,2.0,4.0,57,0.00,,---,0.00,VWS V14.01,2013-07-01 20:11:00,
2013-07-01 13:15:00,79.1,62.6,29.93,WNW,286,3.0,5.0,57,0.00,,---,0.00,VWS V14.01,2013-07-01 20:15:00,
2013-07-01 13:16:00,79.1,62.6,29.93,WNW,294,3.0,5.0,57,0.00,,---,0.00,VWS V14.01,2013-07-01 20:16:00,
2013-07-01 13:20:00,79.4,62.3,29.93,WNW,295,2.0,5.0,56,0.00,,---,0.00,VWS V14.01,2013-07-01 20:20:00,
2013-07-01 13:21:00,79.3,62.8,29.93,WNW,285,3.0,5.0,57,0.00,,---,0.00,VWS V14.01,2013-07-01 20:21:00,
2013-07-01 13:25:00,80.3,63.7,29.93,West,276,2.0,4.0,57,0.00,,---,0.00,VWS V14.01,2013-07-01 20:25:00,
2013-07-01 13:26:00,80.3,63.7,29.93,NW,310,3.0,3.0,57,0.00,,---,0.00,VWS V14.01,2013-07-01 20:26:00,
2013-07-01 13:30:00,80.8,63.1,29.93,NW,326,0.0,4.0,55,0.00,,---,0.00,VWS V14.01,2013-07-01 20:30:00,
2013-07-01 13:31:00,80.8,64.2,29.93,NW,326,0.0,4.0,57,0.00,,---,0.00,VWS V14.01,2013-07-01 20:31:00,
2013-07-01 13:35:00,81.9,64.7,29.93,West,278,0.0,4.0,56,0.00,,---,0.00,VWS V14.01,2013-07-01 20:35:00,
2013-07-01 13:36:00,81.8,64.6,29.93,West,278,1.0,4.0,56,0.00,,---,0.00,VWS V14.01,2013-07-01 20:36:00,
2013-07-01 13:40:00,82.7,64.4,29.93,WNW,299,3.0,5.0,54,0.00,,---,0.00,VWS V14.01,2013-07-01 20:40:00,
2013-07-01 13:41:00,82.7,64.4,29.93,North,350,3.0,5.0,54,0.00,,---,0.00,VWS V14.01,2013-07-01 20:41:00,
2013-07-01 13:45:00,82.2,63.4,29.94,NNW,330,3.0,5.0,53,0.00,,---,0.00,VWS V14.01,2013-07-01 20:45:00,
2013-07-01 13:46:00,82.2,63.4,29.94,West,259,1.0,5.0,53,0.00,,---,0.00,VWS V14.01,2013-07-01 20:46:00,
2013-07-01 13:50:00,81.6,63.4,29.94,WNW,292,4.0,6.0,54,0.00,,---,0.00,VWS V14.01,2013-07-01 20:50:00,
2013-07-01 13:51:00,81.6,62.8,29.94,WSW,258,1.0,6.0,53,0.00,,---,0.00,VWS V14.01,2013-07-01 20:51:00,
2013-07-01 13:55:00,81.7,62.9,29.94,NNW,327,1.0,5.0,53,0.00,,---,0.00,VWS V14.01,2013-07-01 20:55:00,
2013-07-01 13:56:00,81.7,62.9,29.94,NW,326,2.0,5.0,53,0.00,,---,0.00,VWS V14.01,2013-07-01 20:56:00,
2013-07-01 14:00:00,82.7,63.3,29.93,NNE,16,1.0,2.0,52,0.00,,---,0.00,VWS V14.01,2013-07-01 21:00:00,
2013-07-01 14:01:00,82.6,63.2,29.93,SSW,193,0.0,1.0,52,0.00,,---,0.00,VWS V14.01,2013-07-01 21:01:00,
2013-07-01 14:05:00,82.9,64.6,29.93,WSW,255,2.0,5.0,54,0.00,,---,0.00,VWS V14.01,2013-07-01 21:05:00,
2013-07-01 14:06:00,82.9,64.6,29.93,SSW,201,1.0,5.0,54,0.00,,---,0.00,VWS V14.01,2013-07-01 21:06:00,
2013-07-01 14:10:00,83.6,65.2,29.93,NNW,335,3.0,3.0,54,0.00,,---,0.00,VWS V14.01,2013-07-01 21:10:00,
2013-07-01 14:11:00,83.6,65.2,29.93,WSW,240,2.0,2.0,54,0.00,,---,0.00,VWS V14.01,2013-07-01 21:11:00,
2013-07-01 14:15:00,83.6,63.6,29.93,WNW,295,5.0,7.0,51,0.00,,---,0.00,VWS V14.01,2013-07-01 21:15:00,
2013-07-01 14:16:00,83.6,63.6,29.93,WNW,296,4.0,7.0,51,0.00,,---,0.00,VWS V14.01,2013-07-01 21:16:00,
2013-07-01 14:20:00,82.9,64.0,29.94,WNW,295,6.0,8.0,53,0.00,,---,0.00,VWS V14.01,2013-07-01 21:20:00,
2013-07-01 14:21:00,82.9,64.0,29.94,WNW,285,8.0,8.0,53,0.00,,---,0.00,VWS V14.01,2013-07-01 21:21:00,
2013-07-01 14:25:00,82.3,64.0,29.94,NW,313,4.0,9.0,54,0.00,,---,0.00,VWS V14.01,2013-07-01 21:25:00,
2013-07-01 14:26:00,82.3,64.0,29.94,WNW,297,2.0,9.0,54,0.00,,---,0.00,VWS V14.01,2013-07-01 21:26:00,
2013-07-01 14:30:00,81.6,63.4,29.94,West,276,4.0,8.0,54,0.00,,---,0.00,VWS V14.01,2013-07-01 21:30:00,
2013-07-01 14:31:00,81.7,63.5,29.94,WNW,288,5.0,8.0,54,0.00,,---,0.00,VWS V14.01,2013-07-01 21:31:00,
2013-07-01 14:35:00,81.4,63.7,29.93,WNW,293,4.0,9.0,55,0.00,,---,0.00,VWS V14.01,2013-07-01 21:35:00,
2013-07-01 14:36:00,81.4,64.2,29.93,WNW,284,5.0,9.0,56,0.00,,---,0.00,VWS V14.01,2013-07-01 21:36:00,
2013-07-01 14:40:00,81.6,63.4,29.94,WNW,298,5.0,8.0,54,0.00,,---,0.00,VWS V14.01,2013-07-01 21:40:00,
2013-07-01 14:41:00,81.6,63.4,29.94,West,270,4.0,8.0,54,0.00,,---,0.00,VWS V14.01,2013-07-01 21:41:00,
2013-07-01 14:45:00,81.0,63.3,29.94,WNW,293,5.0,9.0,55,0.00,,---,0.00,VWS V14.01,2013-07-01 21:45:00,
2013-07-01 14:46:00,81.0,63.3,29.94,WNW,291,4.0,9.0,55,0.00,,---,0.00,VWS V14.01,2013-07-01 21:46:00,
2013-07-01 14:50:00,80.7,64.1,29.94,NW,314,4.0,7.0,57,0.00,,---,0.00,VWS V14.01,2013-07-01 21:50:00,
2013-07-01 14:51:00,80.6,64.0,29.94,WNW,303,3.0,7.0,57,0.00,,---,0.00,VWS V14.01,2013-07-01 21:51:00,
2013-07-01 14:55:00,80.5,63.9,29.94,NW,308,3.0,8.0,57,0.00,,---,0.00,VWS V14.01,2013-07-01 21:55:00,
2013-07-01 14:56:00,80.5,63.4,29.94,NW,313,2.0,8.0,56,0.00,,---,0.00,VWS V14.01,2013-07-01 21:56:00,
2013-07-01 15:00:00,81.2,64.0,29.94,NW,313,3.0,7.0,56,0.00,,---,0.00,VWS V14.01,2013-07-01 22:00:00,
2013-07-01 15:01:00,81.1,64.4,29.94,WNW,299,2.0,7.0,57,0.00,,---,0.00,VWS V14.01,2013-07-01 22:01:00,
2013-07-01 15:05:00,81.1,63.9,29.94,West,277,6.0,8.0,56,0.00,,---,0.00,VWS V14.01,2013-07-01 22:05:00,
2013-07-01 15:06:00,81.1,64.4,29.94,NW,308,3.0,7.0,57,0.00,,---,0.00,VWS V14.01,2013-07-01 22:06:00,
2013-07-01 15:10:00,81.3,63.6,29.94,NW,307,5.0,6.0,55,0.00,,---,0.00,VWS V14.01,2013-07-01 22:10:00,
2013-07-01 15:11:00,81.4,63.7,29.94,WNW,290,4.0,6.0,55,0.00,,---,0.00,VWS V14.01,2013-07-01 22:11:00,
2013-07-01 15:15:00,81.6,63.9,29.94,WNW,291,5.0,6.0,55,0.00,,---,0.00,VWS V14.01,2013-07-01 22:15:00,
2013-07-01 15:16:00,81.6,63.9,29.94,WNW,302,4.0,6.0,55,0.00,,---,0.00,VWS V14.01,2013-07-01 22:16:00,
2013-07-01 15:20:00,81.5,64.3,29.94,WNW,303,3.0,7.0,56,0.00,,---,0.00,VWS V14.01,2013-07-01 22:20:00,
2013-07-01 15:21:00,81.5,64.3,29.94,NNW,330,3.0,7.0,56,0.00,,---,0.00,VWS V14.01,2013-07-01 22:21:00,
2013-07-01 15:25:00,82.4,64.6,29.94,NW,304,7.0,8.0,55,0.00,,---,0.00,VWS V14.01,2013-07-01 22:25:00,
2013-07-01 15:26:00,82.3,64.5,29.94,NW,319,3.0,5.0,55,0.00,,---,0.00,VWS V14.01,2013-07-01 22:26:00,
2013-07-01 15:30:00,82.0,64.3,29.94,WNW,293,5.0,8.0,55,0.00,,---,0.00,VWS V14.01,2013-07-01 22:30:00,
2013-07-01 15:31:00,82.0,64.3,29.94,West,277,6.0,8.0,55,0.00,,---,0.00,VWS V14.01,2013-07-01 22:31:00,
2013-07-01 15:35:00,81.8,63.5,29.94,WNW,297,8.0,9.0,54,0.00,,---,0.00,VWS V14.01,2013-07-01 22:35:00,
2013-07-01 15:36:00,81.9,64.2,29.94,WNW,291,7.0,9.0,55,0.00,,---,0.00,VWS V14.01,2013-07-01 22:36:00,
2013-07-01 15:40:00,81.5,64.3,29.94,NW,307,2.0,8.0,56,0.00,,---,0.00,VWS V14.01,2013-07-01 22:40:00,
2013-07-01 15:41:00,81.5,64.3,29.94,NW,305,3.0,8.0,56,0.00,,---,0.00,VWS V14.01,2013-07-01 22:41:00,
2013-07-01 15:45:00,81.4,64.2,29.94,NW,321,1.0,7.0,56,0.00,,---,0.00,VWS V14.01,2013-07-01 22:45:00,
2013-07-01 15:46:00,81.5,64.3,29.94,WNW,291,5.0,7.0,56,0.00,,---,0.00,VWS V14.01,2013-07-01 22:46:00,
2013-07-01 15:50:00,81.3,64.1,29.94,WNW,289,4.0,10.0,56,0.00,,---,0.00,VWS V14.01,2013-07-01 22:50:00,
2013-07-01 15:51:00,81.4,64.2,29.94,WNW,295,7.0,10.0,56,0.00,,---,0.00,VWS V14.01,2013-07-01 22:51:00,
2013-07-01 15:55:00,81.5,64.8,29.94,NW,314,3.0,7.0,57,0.00,,---,0.00,VWS V14.01,2013-07-01 22:55:00,
2013-07-01 15:56:00,81.5,64.8,29.94,NW,309,7.0,7.0,57,0.00,,---,0.00,VWS V14.01,2013-07-01 22:56:00,
2013-07-01 16:00:00,81.1,63.9,29.94,NNW,334,3.0,9.0,56,0.00,,---,0.00,VWS V14.01,2013-07-01 23:00:00,
2013-07-01 16:01:00,81.1,63.9,29.94,NW,316,6.0,9.0,56,0.00,,---,0.00,VWS V14.01,2013-07-01 23:01:00,
2013-07-01 16:05:00,81.0,63.8,29.94,WNW,300,8.0,10.0,56,0.00,,---,0.00,VWS V14.01,2013-07-01 23:05:00,
2013-07-01 16:06:00,81.0,63.8,29.94,WNW,289,4.0,10.0,56,0.00,,---,0.00,VWS V14.01,2013-07-01 23:06:00,
2013-07-01 16:10:00,80.6,64.0,29.94,WNW,294,4.0,10.0,57,0.00,,---,0.00,VWS V14.01,2013-07-01 23:10:00,
2013-07-01 16:11:00,80.6,64.0,29.94,WNW,303,7.0,10.0,57,0.00,,---,0.00,VWS V14.01,2013-07-01 23:11:00,
2013-07-01 16:15:00,80.9,64.2,29.94,NW,313,5.0,7.0,57,0.00,,---,0.00,VWS V14.01,2013-07-01 23:15:00,
2013-07-01 16:16:00,80.9,64.8,29.94,SW,215,3.0,7.0,58,0.00,,---,0.00,VWS V14.01,2013-07-01 23:16:00,
2013-07-01 16:20:00,80.5,63.9,29.94,WNW,293,5.0,9.0,57,0.00,,---,0.00,VWS V14.01,2013-07-01 23:20:00,
2013-07-01 16:21:00,80.5,63.9,29.94,NNW,335,3.0,9.0,57,0.00,,---,0.00,VWS V14.01,2013-07-01 23:21:00,
2013-07-01 16:25:00,80.9,64.8,29.94,WNW,290,9.0,9.0,58,0.00,,---,0.00,VWS V14.01,2013-07-01 23:25:00,
2013-07-01 16:26:00,80.8,64.7,29.94,WNW,287,7.0,9.0,58,0.00,,---,0.00,VWS V14.01,2013-07-01 23:26:00,
2013-07-01 16:30:00,80.5,64.4,29.94,NW,306,3.0,9.0,58,0.00,,---,0.00,VWS V14.01,2013-07-01 23:30:00,
2013-07-01 16:31:00,80.5,63.9,29.94,NNW,334,1.0,9.0,57,0.00,,---,0.00,VWS V14.01,2013-07-01 23:31:00,
2013-07-01 16:35:00,80.6,63.5,29.94,NW,321,4.0,7.0,56,0.00,,---,0.00,VWS V14.01,2013-07-01 23:35:00,
2013-07-01 16:36:00,80.6,64.0,29.94,NW,304,6.0,7.0,57,0.00,,---,0.00,VWS V14.01,2013-07-01 23:36:00,
2013-07-01 16:40:00,80.8,63.7,29.94,WNW,292,5.0,9.0,56,0.00,,---,0.00,VWS V14.01,2013-07-01 23:40:00,
2013-07-01 16:41:00,80.8,64.2,29.94,NW,308,4.0,8.0,57,0.00,,---,0.00,VWS V14.01,2013-07-01 23:41:00,
2013-07-01 16:45:00,80.6,64.0,29.94,WNW,293,3.0,9.0,57,0.00,,---,0.00,VWS V14.01,2013-07-01 23:45:00,
2013-07-01 16:46:00,80.5,63.9,29.94,WNW,293,6.0,9.0,57,0.00,,---,0.00,VWS V14.01,2013-07-01 23:46:00,
2013-07-01 16:50:00,80.6,63.5,29.94,WNW,299,4.0,7.0,56,0.00,,---,0.00,VWS V14.01,2013-07-01 23:50:00,
2013-07-01 16:51:00,80.6,63.5,29.94,North,354,3.0,7.0,56,0.00,,---,0.00,VWS V14.01,2013-07-01 23:51:00,
2013-07-01 16:55:00,80.7,63.6,29.94,WNW,282,4.0,8.0,56,0.00,,---,0.00,VWS V14.01,2013-07-01 23:55:00,
2013-07-01 16:56:00,80.7,64.6,29.94,NW,305,8.0,8.0,58,0.00,,---,0.00,VWS V14.01,2013-07-01 23:56:00,
2013-07-01 17:00:00,80.6,63.5,29.94,WNW,286,5.0,9.0,56,0.00,,---,0.00,VWS V14.01,2013-07-02 00:00:00,
2013-07-01 17:01:00,80.7,63.6,29.94,WNW,283,6.0,9.0,56,0.00,,---,0.00,VWS V14.01,2013-07-02 00:01:00,
2013-07-01 17:05:00,81.3,64.1,29.94,NW,310,3.0,6.0,56,0.00,,---,0.00,VWS V14.01,2013-07-02 00:05:00,
2013-07-01 17:06:00,81.2,64.0,29.94,WNW,286,3.0,6.0,56,0.00,,---,0.00,VWS V14.01,2013-07-02 00:06:00,
2013-07-01 17:10:00,82.3,64.5,29.94,WNW,297,3.0,6.0,55,0.00,,---,0.00,VWS V14.01,2013-07-02 00:10:00,
2013-07-01 17:11:00,82.2,63.9,29.94,NNW,337,1.0,6.0,54,0.00,,---,0.00,VWS V14.01,2013-07-02 00:11:00,
2013-07-01 17:15:00,82.4,64.6,29.94,WNW,285,5.0,7.0,55,0.00,,---,0.00,VWS V14.01,2013-07-02 00:15:00,
2013-07-01 17:16:00,82.4,64.6,29.94,NNW,340,1.0,7.0,55,0.00,,---,0.00,VWS V14.01,2013-07-02 00:16:00,
2013-07-01 17:20:00,82.2,64.4,29.93,West,276,4.0,6.0,55,0.00,,---,0.00,VWS V14.01,2013-07-02 00:20:00,
2013-07-01 17:21:00,82.3,64.0,29.93,WNW,292,2.0,6.0,54,0.00,,---,0.00,VWS V14.01,2013-07-02 00:21:00,
2013-07-01 17:25:00,82.0,64.8,29.93,WNW,302,5.0,7.0,56,0.00,,---,0.00,VWS V14.01,2013-07-02 00:25:00,
2013-07-01 17:26:00,82.0,64.3,29.93,WNW,282,5.0,7.0,55,0.00,,---,0.00,VWS V14.01,2013-07-02 00:26:00,
2013-07-01 17:30:00,82.5,64.7,29.93,NW,309,3.0,5.0,55,0.00,,---,0.00,VWS V14.01,2013-07-02 00:30:00,
2013-07-01 17:31:00,82.5,64.7,29.93,NW,319,3.0,5.0,55,0.00,,---,0.00,VWS V14.01,2013-07-02 00:31:00,
2013-07-01 17:35:00,82.5,65.2,29.94,West,274,3.0,7.0,56,0.00,,---,0.00,VWS V14.01,2013-07-02 00:35:00,
2013-07-01 17:36:00,82.6,65.3,29.94,NW,307,7.0,7.0,56,0.00,,---,0.00,VWS V14.01,2013-07-02 00:36:00,
2013-07-01 17:40:00,82.9,65.1,29.93,WNW,293,6.0,7.0,55,0.00,,---,0.00,VWS V14.01,2013-07-02 00:40:00,
2013-07-01 17:41:00,82.8,65.0,29.93,WNW,292,2.0,7.0,55,0.00,,---,0.00,VWS V14.01,2013-07-02 00:41:00,
2013-07-01 17:45:00,83.0,65.2,29.94,NW,324,5.0,7.0,55,0.00,,---,0.00,VWS V14.01,2013-07-02 00:45:00,
2013-07-01 17:46:00,83.0,64.7,29.94,NW,314,4.0,7.0,54,0.00,,---,0.00,VWS V14.01,2013-07-02 00:46:00,
2013-07-01 17:50:00,82.2,63.9,29.94,NW,304,4.0,7.0,54,0.00,,---,0.00,VWS V14.01,2013-07-02 00:50:00,
2013-07-01 17:51:00,82.3,63.5,29.94,WNW,298,6.0,7.0,53,0.00,,---,0.00,VWS V14.01,2013-07-02 00:51:00,
2013-07-01 17:55:00,81.2,63.5,29.94,WNW,294,1.0,8.0,55,0.00,,---,0.00,VWS V14.01,2013-07-02 00:55:00,
2013-07-01 17:56:00,81.3,63.6,29.94,NNW,330,5.0,8.0,55,0.00,,---,0.00,VWS V14.01,2013-07-02 00:56:00,
2013-07-01 18:00:00,80.6,63.5,29.94,West,281,4.0,8.0,56,0.00,,---,0.00,VWS V14.01,2013-07-02 01:00:00,
2013-07-01 18:01:00,80.7,63.6,29.94,NW,311,3.0,8.0,56,0.00,,---,0.00,VWS V14.01,2013-07-02 01:01:00,
2013-07-01 18:05:00,80.4,63.8,29.94,East,94,1.0,8.0,57,0.00,,---,0.00,VWS V14.01,2013-07-02 01:05:00,
2013-07-01 18:06:00,80.4,63.3,29.94,North,359,2.0,8.0,56,0.00,,---,0.00,VWS V14.01,2013-07-02 01:06:00,
2013-07-01 18:10:00,81.0,63.8,29.94,NNE,31,2.0,5.0,56,0.00,,---,0.00,VWS V14.01,2013-07-02 01:10:00,
2013-07-01 18:11:00,80.9,63.8,29.94,East,98,0.0,5.0,56,0.00,,---,0.00,VWS V14.01,2013-07-02 01:11:00,
2013-07-01 18:15:00,81.0,63.8,29.94,NW,321,2.0,8.0,56,0.00,,---,0.00,VWS V14.01,2013-07-02 01:15:00,
2013-07-01 18:16:00,81.1,63.9,29.94,NNW,333,2.0,8.0,56,0.00,,---,0.00,VWS V14.01,2013-07-02 01:16:00,
2013-07-01 18:20:00,81.0,63.8,29.93,WNW,297,4.0,6.0,56,0.00,,---,0.00,VWS V14.01,2013-07-02 01:20:00,
2013-07-01 18:21:00,80.9,63.8,29.93,North,5,2.0,6.0,56,0.00,,---,0.00,VWS V14.01,2013-07-02 01:21:00,
2013-07-01 18:25:00,81.1,63.9,29.93,West,278,2.0,6.0,56,0.00,,---,0.00,VWS V14.01,2013-07-02 01:25:00,
2013-07-01 18:26:00,81.2,64.0,29.93,NW,311,3.0,6.0,56,0.00,,---,0.00,VWS V14.01,2013-07-02 01:26:00,
2013-07-01 18:30:00,81.5,64.3,29.93,NW,316,3.0,6.0,56,0.00,,---,0.00,VWS V14.01,2013-07-02 01:30:00,
2013-07-01 18:31:00,81.4,64.2,29.93,WNW,294,6.0,6.0,56,0.00,,---,0.00,VWS V14.01,2013-07-02 01:31:00,
2013-07-01 18:35:00,81.4,64.2,29.93,NW,309,1.0,5.0,56,0.00,,---,0.00,VWS V14.01,2013-07-02 01:35:00,
2013-07-01 18:36:00,81.4,64.2,29.93,NNW,330,3.0,5.0,56,0.00,,---,0.00,VWS V14.01,2013-07-02 01:36:00,
2013-07-01 18:40:00,81.7,64.5,29.93,WNW,295,2.0,5.0,56,0.00,,---,0.00,VWS V14.01,2013-07-02 01:40:00,
2013-07-01 18:41:00,81.7,64.5,29.93,WNW,293,4.0,5.0,56,0.00,,---,0.00,VWS V14.01,2013-07-02 01:41:00,
2013-07-01 18:45:00,81.8,64.6,29.93,NW,324,3.0,5.0,56,0.00,,---,0.00,VWS V14.01,2013-07-02 01:45:00,
2013-07-01 18:46:00,81.7,64.5,29.93,NW,316,1.0,5.0,56,0.00,,---,0.00,VWS V14.01,2013-07-02 01:46:00,
2013-07-01 18:50:00,81.9,64.2,29.93,WNW,291,3.0,5.0,55,0.00,,---,0.00,VWS V14.01,2013-07-02 01:50:00,
2013-07-01 18:55:00,81.6,63.9,29.93,NW,314,5.0,5.0,55,0.00,,---,0.00,VWS V14.01,2013-07-02 01:55:00,
2013-07-01 19:00:00,81.8,63.5,29.93,NW,310,4.0,6.0,54,0.00,,---,0.00,VWS V14.01,2013-07-02 02:00:00,
2013-07-01 19:05:00,80.9,63.2,29.93,NNW,328,2.0,7.0,55,0.00,,---,0.00,VWS V14.01,2013-07-02 02:05:00,
2013-07-01 19:10:00,80.8,63.7,29.93,West,278,4.0,5.0,56,0.00,,---,0.00,VWS V14.01,2013-07-02 02:10:00,
2013-07-01 19:15:00,81.0,63.3,29.94,NW,304,5.0,5.0,55,0.00,,---,0.00,VWS V14.01,2013-07-02 02:15:00,
2013-07-01 19:20:00,81.0,63.3,29.94,NW,305,2.0,5.0,55,0.00,,---,0.00,VWS V14.01,2013-07-02 02:20:00,
2013-07-01 19:25:00,80.9,63.2,29.94,WNW,299,3.0,5.0,55,0.00,,---,0.00,VWS V14.01,2013-07-02 02:25:00,
2013-07-01 19:30:00,81.4,63.7,29.94,WNW,302,3.0,4.0,55,0.00,,---,0.00,VWS V14.01,2013-07-02 02:30:00,
2013-07-01 19:35:00,81.4,63.7,29.94,NW,317,2.0,4.0,55,0.00,,---,0.00,VWS V14.01,2013-07-02 02:35:00,
2013-07-01 19:40:00,82.1,64.3,29.94,NW,321,1.0,2.0,55,0.00,,---,0.00,VWS V14.01,2013-07-02 02:40:00,
2013-07-01 19:45:00,82.5,63.7,29.94,SSW,211,1.0,4.0,53,0.00,,---,0.00,VWS V14.01,2013-07-02 02:45:00,
2013-07-01 19:50:00,82.9,63.5,29.94,WNW,295,1.0,2.0,52,0.00,,---,0.00,VWS V14.01,2013-07-02 02:50:00,
2013-07-01 19:55:00,83.2,63.2,29.94,NNE,21,1.0,3.0,51,0.00,,---,0.00,VWS V14.01,2013-07-02 02:55:00,
2013-07-01 20:00:00,83.4,63.4,29.94,WNW,301,1.0,2.0,51,0.00,,---,0.00,VWS V14.01,2013-07-02 03:00:00,
2013-07-01 20:05:00,83.4,62.8,29.94,NNE,19,0.0,3.0,50,0.00,,---,0.00,VWS V14.01,2013-07-02 03:05:00,
2013-07-01 20:10:00,83.1,63.1,29.94,NE,40,1.0,4.0,51,0.00,,---,0.00,VWS V14.01,2013-07-02 03:10:00,
2013-07-01 20:15:00,82.5,62.6,29.94,NE,44,3.0,4.0,51,0.00,,---,0.00,VWS V14.01,2013-07-02 03:15:00,
2013-07-01 20:20:00,82.0,62.7,29.94,North,359,0.0,3.0,52,0.00,,---,0.00,VWS V14.01,2013-07-02 03:20:00,
2013-07-01 20:25:00,81.8,61.9,29.95,North,357,1.0,3.0,51,0.00,,---,0.00,VWS V14.01,2013-07-02 03:25:00,
2013-07-01 20:30:00,81.6,61.7,29.95,ENE,58,0.0,3.0,51,0.00,,---,0.00,VWS V14.01,2013-07-02 03:30:00,
2013-07-01 20:35:00,81.1,61.8,29.95,NNE,17,0.0,4.0,52,0.00,,---,0.00,VWS V14.01,2013-07-02 03:35:00,
2013-07-01 20:40:00,80.8,61.5,29.95,NNE,27,1.0,4.0,52,0.00,,---,0.00,VWS V14.01,2013-07-02 03:40:00,
2013-07-01 20:45:00,80.5,61.8,29.95,East,101,1.0,3.0,53,0.00,,---,0.00,VWS V14.01,2013-07-02 03:45:00,
2013-07-01 20:50:00,79.4,61.3,29.95,ENE,60,1.0,5.0,54,0.00,,---,0.00,VWS V14.01,2013-07-02 03:50:00,
2013-07-01 20:55:00,78.0,60.5,29.95,NW,321,1.0,3.0,55,0.00,,---,0.00,VWS V14.01,2013-07-02 03:55:00,
2013-07-01 21:00:00,77.3,60.9,29.95,NW,316,0.0,3.0,57,0.00,,---,0.00,VWS V14.01,2013-07-02 04:00:00,
2013-07-01 21:01:00,77.3,60.9,29.95,NW,317,0.0,3.0,57,0.00,,---,0.00,VWS V14.01,2013-07-02 04:01:00,
2013-07-01 21:05:00,76.5,60.2,29.96,North,352,0.0,2.0,57,0.00,,---,0.00,VWS V14.01,2013-07-02 04:05:00,
2013-07-01 21:06:00,76.6,60.2,29.96,North,352,0.0,2.0,57,0.00,,---,0.00,VWS V14.01,2013-07-02 04:06:00,
2013-07-01 21:10:00,76.1,60.3,29.96,NNW,333,1.0,1.0,58,0.00,,---,0.00,VWS V14.01,2013-07-02 04:10:00,
2013-07-01 21:11:00,76.1,60.3,29.96,NNW,332,0.0,1.0,58,0.00,,---,0.00,VWS V14.01,2013-07-02 04:11:00,
2013-07-01 21:15:00,75.5,60.2,29.96,NW,322,1.0,3.0,59,0.00,,---,0.00,VWS V14.01,2013-07-02 04:15:00,
2013-07-01 21:16:00,75.5,60.2,29.96,NW,319,0.0,3.0,59,0.00,,---,0.00,VWS V14.01,2013-07-02 04:16:00,
2013-07-01 21:20:00,75.2,60.4,29.96,North,9,2.0,2.0,60,0.00,,---,0.00,VWS V14.01,2013-07-02 04:20:00,
2013-07-01 21:21:00,75.2,60.4,29.96,NNW,331,1.0,2.0,60,0.00,,---,0.00,VWS V14.01,2013-07-02 04:21:00,
2013-07-01 21:25:00,74.9,60.6,29.96,NNE,13,0.0,2.0,61,0.00,,---,0.00,VWS V14.01,2013-07-02 04:25:00,
2013-07-01 21:26:00,75.0,60.7,29.96,NNE,13,1.0,2.0,61,0.00,,---,0.00,VWS V14.01,2013-07-02 04:26:00,
2013-07-01 21:30:00,74.8,60.5,29.96,East,89,1.0,2.0,61,0.00,,---,0.00,VWS V14.01,2013-07-02 04:30:00,
2013-07-01 21:31:00,74.8,60.5,29.96,East,81,0.0,2.0,61,0.00,,---,0.00,VWS V14.01,2013-07-02 04:31:00,
2013-07-01 21:35:00,74.9,60.6,29.96,East,101,1.0,2.0,61,0.00,,---,0.00,VWS V14.01,2013-07-02 04:35:00,
2013-07-01 21:36:00,74.9,60.6,29.96,East,101,0.0,2.0,61,0.00,,---,0.00,VWS V14.01,2013-07-02 04:36:00,
2013-07-01 21:40:00,74.8,60.9,29.96,East,101,0.0,1.0,62,0.00,,---,0.00,VWS V14.01,2013-07-02 04:40:00,
2013-07-01 21:41:00,74.9,61.0,29.96,East,101,0.0,1.0,62,0.00,,---,0.00,VWS V14.01,2013-07-02 04:41:00,
2013-07-01 21:45:00,74.6,60.7,29.96,East,95,0.0,2.0,62,0.00,,---,0.00,VWS V14.01,2013-07-02 04:45:00,
2013-07-01 21:46:00,74.6,60.7,29.96,East,95,0.0,2.0,62,0.00,,---,0.00,VWS V14.01,2013-07-02 04:46:00,
2013-07-01 21:50:00,74.3,60.5,29.96,ENE,67,0.0,1.0,62,0.00,,---,0.00,VWS V14.01,2013-07-02 04:50:00,
2013-07-01 21:51:00,74.3,60.5,29.96,ENE,71,1.0,1.0,62,0.00,,---,0.00,VWS V14.01,2013-07-02 04:51:00,
2013-07-01 21:55:00,74.3,60.5,29.96,East,101,0.0,4.0,62,0.00,,---,0.00,VWS V14.01,2013-07-02 04:55:00,
2013-07-01 21:56:00,74.3,60.5,29.96,East,101,0.0,4.0,62,0.00,,---,0.00,VWS V14.01,2013-07-02 04:56:00,
2013-07-01 22:00:00,74.3,60.0,29.96,East,81,0.0,2.0,61,0.00,,---,0.00,VWS V14.01,2013-07-02 05:00:00,
2013-07-01 22:01:00,74.3,60.0,29.96,East,79,2.0,2.0,61,0.00,,---,0.00,VWS V14.01,2013-07-02 05:01:00,
2013-07-01 22:05:00,74.0,60.2,29.97,NE,34,0.0,1.0,62,0.00,,---,0.00,VWS V14.01,2013-07-02 05:05:00,
2013-07-01 22:06:00,74.1,60.3,29.97,NE,34,0.0,1.0,62,0.00,,---,0.00,VWS V14.01,2013-07-02 05:06:00,
2013-07-01 22:10:00,73.9,60.1,29.97,East,81,0.0,1.0,62,0.00,,---,0.00,VWS V14.01,2013-07-02 05:10:00,
2013-07-01 22:11:00,73.9,60.1,29.97,East,79,0.0,1.0,62,0.00,,---,0.00,VWS V14.01,2013-07-02 05:11:00,
2013-07-01 22:15:00,73.7,59.9,29.97,East,97,0.0,3.0,62,0.00,,---,0.00,VWS V14.01,2013-07-02 05:15:00,
2013-07-01 22:16:00,73.7,59.9,29.97,East,97,1.0,3.0,62,0.00,,---,0.00,VWS V14.01,2013-07-02 05:16:00,
2013-07-01 22:20:00,73.5,60.2,29.97,ENE,73,0.0,2.0,63,0.00,,---,0.00,VWS V14.01,2013-07-02 05:20:00,
2013-07-01 22:21:00,73.5,60.2,29.97,ENE,74,0.0,2.0,63,0.00,,---,0.00,VWS V14.01,2013-07-02 05:21:00,
2013-07-01 22:25:00,73.1,59.8,29.97,West,262,0.0,1.0,63,0.00,,---,0.00,VWS V14.01,2013-07-02 05:25:00,
2013-07-01 22:26:00,73.1,59.8,29.97,West,262,0.0,1.0,63,0.00,,---,0.00,VWS V14.01,2013-07-02 05:26:00,
2013-07-01 22:30:00,72.8,59.5,29.98,NNE,24,1.0,2.0,63,0.00,,---,0.00,VWS V14.01,2013-07-02 05:30:00,
2013-07-01 22:31:00,72.8,59.5,29.98,NNE,25,0.0,2.0,63,0.00,,---,0.00,VWS V14.01,2013-07-02 05:31:00,
2013-07-01 22:35:00,72.6,59.7,29.98,NNE,13,0.0,3.0,64,0.00,,---,0.00,VWS V14.01,2013-07-02 05:35:00,
2013-07-01 22:36:00,72.7,59.4,29.98,ENE,63,2.0,3.0,63,0.00,,---,0.00,VWS V14.01,2013-07-02 05:36:00,
2013-07-01 22:40:00,72.5,59.6,29.98,NNE,23,1.0,2.0,64,0.00,,---,0.00,VWS V14.01,2013-07-02 05:40:00,
2013-07-01 22:41:00,72.6,59.7,29.98,NNE,23,1.0,2.0,64,0.00,,---,0.00,VWS V14.01,2013-07-02 05:41:00,
2013-07-01 22:45:00,72.4,59.1,29.98,NNE,16,0.0,1.0,63,0.00,,---,0.00,VWS V14.01,2013-07-02 05:45:00,
2013-07-01 22:46:00,72.4,59.1,29.98,NNE,16,1.0,1.0,63,0.00,,---,0.00,VWS V14.01,2013-07-02 05:46:00,
2013-07-01 22:50:00,72.2,59.4,29.99,NNW,348,1.0,2.0,64,0.00,,---,0.00,VWS V14.01,2013-07-02 05:50:00,
2013-07-01 22:51:00,72.3,59.5,29.99,NNW,329,1.0,2.0,64,0.00,,---,0.00,VWS V14.01,2013-07-02 05:51:00,
2013-07-01 22:55:00,72.1,59.3,29.99,NNW,348,1.0,1.0,64,0.00,,---,0.00,VWS V14.01,2013-07-02 05:55:00,
2013-07-01 22:56:00,72.1,59.3,29.99,NNW,348,0.0,1.0,64,0.00,,---,0.00,VWS V14.01,2013-07-02 05:56:00,
2013-07-01 23:00:00,71.6,58.8,29.99,NNW,340,0.0,2.0,64,0.00,,---,0.00,VWS V14.01,2013-07-02 06:00:00,
2013-07-01 23:01:00,71.6,58.8,29.99,NNW,340,2.0,2.0,64,0.00,,---,0.00,VWS V14.01,2013-07-02 06:01:00,
2013-07-01 23:05:00,71.2,58.8,29.99,North,3,0.0,3.0,65,0.00,,---,0.00,VWS V14.01,2013-07-02 06:05:00,
2013-07-01 23:06:00,71.2,58.4,29.99,North,3,1.0,3.0,64,0.00,,---,0.00,VWS V14.01,2013-07-02 06:06:00,
2013-07-01 23:10:00,70.9,58.6,29.99,NNE,23,0.0,2.0,65,0.00,,---,0.00,VWS V14.01,2013-07-02 06:10:00,
2013-07-01 23:11:00,70.9,58.6,29.99,NNE,23,0.0,2.0,65,0.00,,---,0.00,VWS V14.01,2013-07-02 06:11:00,
2013-07-01 23:15:00,70.7,58.8,30.00,NNE,23,0.0,2.0,66,0.00,,---,0.00,VWS V14.01,2013-07-02 06:15:00,
2013-07-01 23:16:00,70.7,58.8,30.00,NNE,23,1.0,2.0,66,0.00,,---,0.00,VWS V14.01,2013-07-02 06:16:00,
2013-07-01 23:20:00,70.4,58.5,30.00,NW,326,1.0,3.0,66,0.00,,---,0.00,VWS V14.01,2013-07-02 06:20:00,
2013-07-01 23:21:00,70.5,58.6,30.00,NNE,30,2.0,3.0,66,0.00,,---,0.00,VWS V14.01,2013-07-02 06:21:00,
2013-07-01 23:25:00,70.2,58.3,30.00,NNE,18,1.0,2.0,66,0.00,,---,0.00,VWS V14.01,2013-07-02 06:25:00,
2013-07-01 23:26:00,70.2,58.3,30.00,NNE,18,0.0,2.0,66,0.00,,---,0.00,VWS V14.01,2013-07-02 06:26:00,
2013-07-01 23:30:00,70.0,58.5,30.00,NE,38,0.0,1.0,67,0.00,,---,0.00,VWS V14.01,2013-07-02 06:30:00,
2013-07-01 23:31:00,70.0,58.5,30.00,NE,38,0.0,1.0,67,0.00,,---,0.00,VWS V14.01,2013-07-02 06:31:00,
2013-07-01 23:35:00,69.8,58.4,30.00,NNW,334,1.0,1.0,67,0.00,,---,0.00,VWS V14.01,2013-07-02 06:35:00,
2013-07-01 23:36:00,69.8,58.4,30.00,NNW,333,0.0,1.0,67,0.00,,---,0.00,VWS V14.01,2013-07-02 06:36:00,
2013-07-01 23:40:00,69.7,58.3,30.00,NNW,334,0.0,1.0,67,0.00,,---,0.00,VWS V14.01,2013-07-02 06:40:00,
2013-07-01 23:41:00,69.7,58.3,30.00,NNW,334,0.0,1.0,67,0.00,,---,0.00,VWS V14.01,2013-07-02 06:41:00,
2013-07-01 23:45:00,69.6,58.6,30.00,NNW,335,0.0,1.0,68,0.00,,---,0.00,VWS V14.01,2013-07-02 06:45:00,
2013-07-01 23:46:00,69.6,58.6,30.00,NNW,335,0.0,1.0,68,0.00,,---,0.00,VWS V14.01,2013-07-02 06:46:00,
2013-07-01 23:50:00,69.4,58.4,30.01,NNW,335,0.0,1.0,68,0.00,,---,0.00,VWS V14.01,2013-07-02 06:50:00,
2013-07-01 23:51:00,69.4,58.4,30.01,NNW,335,0.0,1.0,68,0.00,,---,0.00,VWS V14.01,2013-07-02 06:51:00,
2013-07-01 23:55:00,69.2,58.6,30.01,NNW,335,0.0,0.0,69,0.00,,---,0.00,VWS V14.01,2013-07-02 06:55:00,
2013-07-01 23:56:00,69.2,58.6,30.01,NNW,335,0.0,0.0,69,0.00,,---,0.00,VWS V14.01,2013-07-02 06:56:00,